| time (UTC) | temp F | wind direction | speed MPH | gust MPH | rain 1hr in | rain 24hr in | rain mn in | humidity % | barometer mb |
| 20260901204525 | 94 | 269 | 0.0 | 4.0 | 0.00 | 0.00 | 0.00 | 50 | 1015.4 |
| 20260901203023 | 94 | 82 | 1.0 | 5.0 | 0.00 | 0.00 | 0.00 | 48 | 1015.5 |
| 20260901201521 | 94 | 98 | 2.0 | 7.0 | 0.00 | 0.00 | 0.00 | 49 | 1015.7 |
| 20260901200024 | 94 | 192 | 0.0 | 4.0 | 0.00 | 0.00 | 0.00 | 52 | 1016.0 |
| 20260901194517 | 94 | 87 | 1.0 | 9.0 | 0.00 | 0.00 | 0.00 | 50 | 1016.1 |
| 20260901193110 | 94 | 241 | 0.0 | 8.0 | 0.00 | 0.00 | 0.00 | 52 | 1016.1 |
| 20260901191556 | 93 | 148 | 0.0 | 3.0 | 0.00 | 0.00 | 0.00 | 54 | 1016.4 |
| 20260901190048 | 92 | 16 | 0.0 | 1.0 | 0.00 | 0.00 | 0.00 | 54 | 1016.5 |
| 20260901184540 | 92 | 65 | 2.0 | 7.0 | 0.00 | 0.00 | 0.00 | 55 | 1016.8 |
| 20260901183017 | 92 | 22 | 1.0 | 7.0 | 0.00 | 0.00 | 0.00 | 56 | 1016.9 |
| 20260901181526 | 91 | 105 | 0.0 | 4.0 | 0.00 | 0.00 | 0.00 | 57 | 1017.0 |
| 20260901180058 | 91 | 165 | 1.0 | 4.0 | 0.00 | 0.00 | 0.00 | 59 | 1017.0 |
| 20260901174558 | 90 | 87 | 0.0 | 3.0 | 0.00 | 0.00 | 0.00 | 58 | 1017.3 |
| 20260901173039 | 90 | 101 | 4.0 | 8.0 | 0.00 | 0.00 | 0.00 | 61 | 1017.3 |
| 20260901171552 | 90 | 108 | 0.0 | 5.0 | 0.00 | 0.00 | 0.00 | 63 | 1017.5 |
| 20260901170022 | 89 | 111 | 2.0 | 7.0 | 0.00 | 0.00 | 0.00 | 63 | 1017.8 |
| 20260901164522 | 89 | 65 | 1.0 | 7.0 | 0.00 | 0.00 | 0.00 | 63 | 1017.9 |
| 20260901163004 | 89 | 306 | 1.0 | 4.0 | 0.00 | 0.00 | 0.00 | 67 | 1017.8 |
| 20260901161503 | 88 | 295 | 0.0 | 2.0 | 0.00 | 0.00 | 0.00 | 68 | 1018.1 |
| 20260901160045 | 87 | 10 | 0.0 | 4.0 | 0.00 | 0.00 | 0.00 | 70 | 1018.3 |
| 20260901154545 | 86 | 121 | 0.0 | 3.0 | 0.00 | 0.00 | 0.00 | 74 | 1018.2 |
| 20260901153026 | 85 | 74 | 0.0 | 3.0 | 0.00 | 0.00 | 0.00 | 77 | 1018.4 |
| 20260901151532 | 84 | 294 | 0.0 | 1.0 | 0.00 | 0.00 | 0.00 | 81 | 1018.3 |
| 20260901150009 | 83 | 5 | 0.0 | 1.0 | 0.00 | 0.00 | 0.00 | 84 | 1018.4 |
| 20260901144516 | 81 | 21 | 0.0 | 3.0 | 0.00 | 0.00 | 0.00 | 86 | 1018.4 |
| 20260901143107 | 80 | 65 | 0.0 | 2.0 | 0.00 | 0.00 | 0.00 | 90 | 1018.5 |
| 20260901141549 | 78 | 82 | 0.0 | 0.0 | 0.00 | 0.00 | 0.00 | 91 | 1018.4 |
| 20260901140033 | 77 | 82 | 0.0 | 1.0 | 0.00 | 0.00 | 0.00 | 92 | 1018.4 |
| 20260901134535 | 76 | 80 | 0.0 | 0.0 | 0.00 | 0.00 | 0.00 | 94 | 1018.3 |
| 20260901133018 | 75 | 80 | 0.0 | 0.0 | 0.00 | 0.00 | 0.00 | 94 | 1018.3 |
| 20260901131513 | 74 | 80 | 0.0 | 0.0 | 0.00 | 0.00 | 0.00 | 95 | 1018.4 |
| 20260901130055 | 73 | 80 | 0.0 | 0.0 | 0.00 | 0.00 | 0.00 | 95 | 1018.4 |
| 20260901124555 | 73 | 80 | 0.0 | 0.0 | 0.00 | 0.00 | 0.00 | 95 | 1018.4 |
| 20260901123109 | 72 | 80 | 0.0 | 0.0 | 0.00 | 0.00 | 0.00 | 95 | 1018.2 |
| 20260901121603 | 72 | 80 | 0.0 | 0.0 | 0.00 | 0.00 | 0.00 | 95 | 1018.1 |
| 20260901120052 | 71 | 80 | 0.0 | 0.0 | 0.00 | 0.00 | 0.00 | 94 | 1017.8 |
| 20260901114547 | 71 | 80 | 0.0 | 0.0 | 0.00 | 0.00 | 0.00 | 94 | 1017.6 |
| 20260901113047 | 71 | 80 | 0.0 | 0.0 | 0.00 | 0.00 | 0.00 | 94 | 1017.4 |
| 20260901111546 | 71 | 80 | 0.0 | 0.0 | 0.00 | 0.00 | 0.00 | 94 | 1017.4 |
| 20260901110032 | 71 | 80 | 0.0 | 0.0 | 0.00 | 0.00 | 0.00 | 94 | 1017.1 |
| 20260901104528 | 72 | 80 | 0.0 | 0.0 | 0.00 | 0.00 | 0.00 | 93 | 1017.0 |
| 20260901103005 | 72 | 80 | 0.0 | 0.0 | 0.00 | 0.00 | 0.00 | 94 | 1016.9 |
| 20260901101515 | 72 | 80 | 0.0 | 0.0 | 0.00 | 0.00 | 0.00 | 93 | 1017.0 |
| 20260901094549 | 72 | 80 | 0.0 | 0.0 | 0.00 | 0.00 | 0.00 | 93 | 1017.0 |
| 20260901093027 | 72 | 80 | 0.0 | 0.0 | 0.00 | 0.00 | 0.00 | 93 | 1016.9 |
| 20260901091526 | 72 | 80 | 0.0 | 0.0 | 0.00 | 0.00 | 0.00 | 93 | 1016.8 |
| 20260901090012 | 72 | 80 | 0.0 | 0.0 | 0.00 | 0.00 | 0.00 | 93 | 1016.7 |
| 20260901084507 | 73 | 80 | 0.0 | 0.0 | 0.00 | 0.00 | 0.00 | 93 | 1016.5 |
| 20260901083048 | 73 | 80 | 0.0 | 0.0 | 0.00 | 0.00 | 0.00 | 93 | 1016.5 |
| 20260901081547 | 73 | 80 | 0.0 | 0.0 | 0.00 | 0.00 | 0.00 | 92 | 1016.3 |
| 20260901080029 | 73 | 80 | 0.0 | 0.0 | 0.00 | 0.00 | 0.00 | 92 | 1016.4 |
| 20260901074528 | 74 | 80 | 0.0 | 0.0 | 0.00 | 0.00 | 0.00 | 92 | 1016.3 |
| 20260901073008 | 74 | 80 | 0.0 | 0.0 | 0.00 | 0.00 | 0.00 | 92 | 1016.2 |
| 20260901071521 | 74 | 80 | 0.0 | 0.0 | 0.00 | 0.00 | 0.00 | 91 | 1016.3 |
| 20260901070056 | 74 | 80 | 0.0 | 0.0 | 0.00 | 0.00 | 0.00 | 91 | 1016.2 |
| 20260901064553 | 74 | 80 | 0.0 | 0.0 | 0.00 | 0.00 | 0.00 | 91 | 1016.4 |
| 20260901063034 | 75 | 80 | 0.0 | 0.0 | 0.00 | 0.00 | 0.00 | 91 | 1016.3 |
| 20260901061527 | 75 | 80 | 0.0 | 0.0 | 0.00 | 0.00 | 0.00 | 90 | 1016.4 |
| 20260901060008 | 75 | 80 | 0.0 | 0.0 | 0.00 | 0.00 | 0.00 | 90 | 1016.4 |
| 20260901054507 | 75 | 80 | 0.0 | 0.0 | 0.00 | 0.00 | 0.00 | 90 | 1016.4 |
| 20260901053104 | 75 | 80 | 0.0 | 0.0 | 0.00 | 0.00 | 0.00 | 89 | 1016.5 |
| 20260901051550 | 76 | 80 | 0.0 | 0.0 | 0.00 | 0.00 | 0.00 | 89 | 1016.6 |
| 20260901050031 | 76 | 80 | 0.0 | 0.0 | 0.00 | 0.00 | 0.00 | 88 | 1016.5 |
| 20260901044533 | 76 | 80 | 0.0 | 0.0 | 0.00 | 0.00 | 0.00 | 88 | 1016.5 |
| 20260901043015 | 76 | 80 | 0.0 | 0.0 | 0.00 | 0.00 | 0.00 | 87 | 1016.6 |
| 20260901041513 | 77 | 80 | 0.0 | 0.0 | 0.00 | 0.00 | 0.00 | 86 | 1016.5 |
| 20260901040016 | 77 | 80 | 0.0 | 0.0 | 0.00 | 0.00 | 0.00 | 85 | 1016.6 |
| 20260901034512 | 77 | 80 | 0.0 | 0.0 | 0.00 | 0.00 | 0.00 | 85 | 1016.6 |
| 20260901033010 | 77 | 80 | 0.0 | 0.0 | 0.00 | 0.00 | 0.00 | 85 | 1016.6 |
| 20260901031508 | 78 | 80 | 0.0 | 0.0 | 0.00 | 0.00 | 0.00 | 85 | 1016.6 |
| 20260901030006 | 78 | 80 | 0.0 | 0.0 | 0.00 | 0.00 | 0.00 | 84 | 1016.8 |
| 20260901024510 | 78 | 80 | 0.0 | 0.0 | 0.00 | 0.00 | 0.00 | 83 | 1016.8 |
| 20260901023046 | 79 | 80 | 0.0 | 0.0 | 0.00 | 0.00 | 0.00 | 82 | 1016.7 |
| 20260901021543 | 79 | 80 | 0.0 | 0.0 | 0.00 | 0.00 | 0.00 | 81 | 1016.7 |
| 20260901020024 | 80 | 80 | 0.0 | 0.0 | 0.00 | 0.00 | 0.00 | 79 | 1016.5 |
| 20260901014524 | 80 | 80 | 0.0 | 0.0 | 0.00 | 0.00 | 0.00 | 78 | 1016.3 |
| 20260901013002 | 81 | 80 | 0.0 | 0.0 | 0.00 | 0.00 | 0.00 | 78 | 1016.1 |
| 20260901011606 | 81 | 80 | 0.0 | 0.0 | 0.00 | 0.00 | 0.00 | 75 | 1015.9 |
| 20260901010057 | 82 | 80 | 0.0 | 0.0 | 0.00 | 0.00 | 0.00 | 74 | 1015.7 |
| 20260901004540 | 83 | 80 | 0.0 | 0.0 | 0.00 | 0.00 | 0.00 | 72 | 1015.6 |
| 20260901003037 | 84 | 80 | 0.0 | 0.0 | 0.00 | 0.00 | 0.00 | 71 | 1015.5 |
| 20260901001524 | 85 | 80 | 0.0 | 0.0 | 0.00 | 0.00 | 0.00 | 69 | 1015.5 |
| 20260901000015 | 87 | 80 | 0.0 | 0.0 | 0.00 | 0.00 | 0.00 | 68 | 1015.5 |
| 20260831234511 | 88 | 80 | 0.0 | 2.0 | 0.00 | 0.00 | 0.00 | 66 | 1015.6 |
| 20260831233006 | 89 | 83 | 0.0 | 1.0 | 0.00 | 0.00 | 0.00 | 64 | 1015.6 |
| 20260831231503 | 90 | 83 | 0.0 | 2.0 | 0.00 | 0.00 | 0.00 | 63 | 1015.5 |
| 20260831230002 | 90 | 80 | 0.0 | 2.0 | 0.00 | 0.00 | 0.00 | 60 | 1015.7 |
| 20260831224501 | 91 | 79 | 0.0 | 3.0 | 0.00 | 0.00 | 0.00 | 60 | 1015.7 |
| 20260831223001 | 91 | 63 | 0.0 | 3.0 | 0.00 | 0.00 | 0.00 | 59 | 1015.7 |
| 20260831221542 | 90 | 78 | 0.0 | 2.0 | 0.00 | 0.00 | 0.00 | 62 | 1015.6 |
| 20260831220041 | 91 | 105 | 0.0 | 7.0 | 0.00 | 0.00 | 0.00 | 58 | 1015.7 |
| 20260831214549 | 91 | 98 | 0.0 | 4.0 | 0.00 | 0.00 | 0.00 | 60 | 1015.8 |
| 20260831213026 | 91 | 92 | 0.0 | 4.0 | 0.00 | 0.00 | 0.00 | 61 | 1015.9 |
| 20260831211525 | 91 | 106 | 0.0 | 3.0 | 0.00 | 0.00 | 0.00 | 59 | 1016.2 |
| 20260831210026 | 92 | 120 | 0.0 | 7.0 | 0.00 | 0.00 | 0.00 | 60 | 1016.2 |